CZ-6A DEB, 60850

Orbit data source: Space-Track

CZ-6A DEB, 60850 is space debris in LEO originally from a launch on Tue, 06 Aug 2024 UTC launched from the Taiyaun Space Center, China (TSC). Debris objects in space refer to the collection of defunct objects orbiting the Earth. Examples of debris include non-operational satellites, rocket bodies, and fragments generated from explosions, collisions, or faulty payload assembly.

Loading next visibility...
Identifier
60850, 2024-140JD
Orbit
LEO
Country
Flag of CNCN / PRC
Related business
Manufacturer
SAST
Mission
Spacecraft
Bus & Motor
Unknown
Mass
Unknown
Launch date (UTC)
2024-08-06 (1 year ago)
Launch vehicle
Unknown
Launch site
Taiyaun Space Center, China (TSC)
Object type
Payload
Rocket body
Debris
Shape & HBR
Unknown shape, 0.1 m
Radar Cross Section
Small (<0.1 m²)

Expand to show TLE details & history
Last TLE update: 16 hours ago

TLE from 16 hours ago
0 CZ-6A DEB
1 60850U 24140JD  25353.79376228  .00000353  00000-0  14742-3 0  9994
2 60850  88.8619 286.3910 0026146  25.0808 335.1647 14.23873828 70037
Epoch: 2025-12-19T19:03Z
TLE epoch observation values (Epoch: 2025-12-19T19:03:01.060Z)
Latitude
-0.00007°
Longitude
-87.99323°
Altitude
798.283 km
Speed
7.463 km/s
True Right ascension
19h 05m 33s
True Declination
0° 00' 00"
Sunlit
Object was in daylight at epoch
Visualization orbit readout
Latitude
Unknown
Longitude
Unknown
Altitude
Unknown
Speed
Unknown
Apparent Right ascension
Unknown
Apparent Declination
Unknown
Sunlit
N/A
Visualization observer readout
Local Sidereal Time
10:07:50
Azimuth
Unknown
Elevation
Unknown
Doppler factor
Unknown
Orbital elements
Apogee altitude
828.02 km
Perigee altitude
790.436 km
Semi-major axis
7,187.365 km
Eccentricity
0.00261
Inclination
88.8619°
RAAN
286.391°
Arg. of periapsis
25.0808°
True anomaly
335.03849°
Mean anomaly
335.1647°
Eccentric anomaly
335.10163°
Mean motion
3.56196 °/min
Orbital period
101.07 mins
BSTAR
0.00014742
Loading maneuver chart data...
Computing Atmospheric mass density...

Documentation

Showing up to 5 results
|